Preview of NWS' New Version of Forecast
This preview is not operational and should not be used for support decisions.

Regional Weather Roundup (RWR)

Issued by National Weather Service (NWS)

                            
000
ASUS44 KMEG 211210
RWRTN 
TENNESSEE HOURLY STATE WEATHER ROUNDUP
NATIONAL WEATHER SERVICE MEMPHIS TN
700 AM CDT SUN JUL 21 2019

TNZ002-004-019-021-049-052-054-088>092-211300-
WEST TENNESSEE
  
CITY           SKY/WX    TMP DP  RH WIND       PRES   REMARKS
MEMPHIS INTL   FAIR      76  75  97 SW5       30.00R                  
NWS MEMPHIS      N/A     76 N/A N/A MISG        N/A                   
JACKSON        CLOUDY    75  74  96 S3        30.01S                  
DYERSBURG      FAIR      75  74  96 CALM      30.00S                  
SOMERVILLE     PTSUNNY   75  73  94 SW5       29.98F                  
COVINGTON      CLOUDY    75  75 100 CALM      29.99S                  
UNION CITY     MOSUNNY   75  75 100 S6        29.98R                  
BOLIVAR        CLOUDY    75  73  94 CALM      30.00S                  
PARIS          CLOUDY    75  73  94 S8        30.00S                  
HUNTINGDON     CLOUDY    75  73  94 S6        30.00S                  
LEXINGTON      CLOUDY    75  73  94 S8        30.01S FOG              
SELMER         PTSUNNY   75  73  94 CALM      30.02R FOG              
SAVANNAH       CLOUDY    77  73  88 SW6       30.02S                  
$$

TNZ008-025-027-028-033-062-065-066-211300-
NORTH MIDDLE TENNESSEE
  
CITY           SKY/WX    TMP DP  RH WIND       PRES   REMARKS
NASHVILLE      PTSUNNY   75  71  87 CALM      30.03R                  
PORTLAND       CLOUDY    73  72  94 SW6G13    30.02S                  
CLARKSVILLE    CLOUDY    74  73  97 S8        30.00R                  
LEBANON        MOSUNNY   75  73  94 SW5       30.00S                  
SMYRNA         FAIR      73  72  96 CALM      30.04R                  
MURFREESBORO   MOSUNNY   75  73  94 S3        30.01R                  
COOKEVILLE     CLOUDY    73  72  94 S5        30.05R                  
LIVINGSTON     PTSUNNY   72  70  94 SW5       30.05R                  
GALLATIN       CLOUDY    73  73 100 CALM      30.04S                  
CROSSVILLE     CLOUDY    70  68  93 CALM      30.11R                  
ROCKWOOD       CLOUDY    72  72 100 VRB3      30.09R FOG              
$$

TNZ061-075-076-078-094-096-097-211300-
SOUTH MIDDLE TENNESSEE
  
CITY           SKY/WX    TMP DP  RH WIND       PRES   REMARKS
LAWRENCEBURG   CLOUDY    73  72  94 SW7       30.05R FOG              
LEWISBURG      PTSUNNY   75  73  94 CALM      30.03R                  
FAYETTEVILLE   CLOUDY    73  73 100 S5        30.06R                  
TULLAHOMA      PTSUNNY   73  72  94 CALM      30.05S                  
WINCHESTER     CLOUDY    75  72  88 CALM      30.06R                  
MCMINNVILLE    CLOUDY    73  73 100 SW3       30.06R                  
COLUMBIA       CLOUDY    75  75 100 SW5       30.02R                  
SHELBYVILLE    MOSUNNY   75  73  94 S6        30.04R                  
$$

TNZ017-018-042-046-047-211300-
NORTHEAST TENNESSEE
  
CITY           SKY/WX    TMP DP  RH WIND       PRES   REMARKS
TRI CITIES     FOG       72  70  93 CALM      30.09R VSB 1/2          
ELIZABETHTON   FAIR      73  70  88 CALM      30.09R                  
GREENEVILLE    CLOUDY    72  70  94 CALM      30.08R                  
$$

TNZ012-013-036-069-073-074-211300-
CENTRAL EAST TENNESSEE
  
CITY           SKY/WX    TMP DP  RH WIND       PRES   REMARKS
KNOXVILLE      CLOUDY    74  72  93 SW8       30.05R                  
OAK RIDGE      CLOUDY    77  72  84 SW5       30.07                   
DOWNTOWN KNOXV MOSUNNY   75  75 100 CALM      30.05S                  
GATLINBURG     PTSUNNY   72  72 100 CALM      30.06R                  
MORRISTOWN     FOG       73  73 100 S5        30.07R VSB 1/4          
JACKSBORO      CLOUDY    73  73 100 CALM      30.09R                  
$$

TNZ083-085-099-211300-
SOUTHEAST TENNESSEE
  
CITY           SKY/WX    TMP DP  RH WIND       PRES   REMARKS
CHATTANOOGA    FAIR      74  72  93 S5        30.07S                  
DAYTON         CLOUDY    75  73  94 VRB3      30.05R                  
$$

SKY/WX REPORTED AS FAIR MEANS FEW OR NO CLOUDS BELOW
12 THOUSAND FEET.